Flag for Germany Past Weather in Heidenheim an der Brenz, Baden-Württemberg, Germany — Yesterday and Last 2 Weeks

Now
9 °F

Ice fog.


Feels Like: 9 °F
Forecast: 4 / 17 °F
Wind: 1 mph from North

Location: Laupheim Airport

Current Time: Jan 22, 2017 at 9:19:19 am

Latest Report: Jan 22, 2017 at 8:20 am


Visibility: 0 mi

Pressure: 30.27 "Hg

Humidity: 85%

Dew Point: 5 °F

Location of Heidenheim an der BrenzLocation

Past Weather in Heidenheim an der Brenz — Graph

°F

Heidenheim an der Brenz Temperature Yesterday

Maximum temperature yesterday: 18 °F (at 1:20 pm)
Minimum temperature yesterday: 10 °F (at 4:20 am)
Average temperature yesterday: 13 °F

High & Low Weather Summary for the Past Weeks

 TemperatureHumidityPressure
High41 °F (Jan 13, 1:20 am)100% (Jan 8, 9:06 pm)30.51 "Hg (Jan 8, 9:06 pm)
Low3 °F (Jan 7, 7:20 am)51% (Jan 13, 11:20 am)29.39 "Hg (Jan 13, 1:20 am)
Average25 °F84%30.14 "Hg
* Reported Jan 7 7:20 am — Jan 22 7:20 am, Heidenheim an der Brenz, Weather by CustomWeather, © 2017

Note: Actual official high and low records may vary slightly from our data, if they occured in-between our weather recording intervals... More about our weather records

Advertising

Heidenheim an der Brenz Weather History for the Previous 24 Hours

Scroll right to see more
 ConditionsComfort  
Time TempWeatherWind HumidityBarometerVisibility
7:20 am
Sun, Jan 22
9 °FIce fog.1 mph85%30.24 "Hg0 mi
6:20 am7 °FIce fog.1 mph85%30.27 "Hg1 mi
5:20 am7 °FIce fog.No wind85%30.24 "Hg0 mi
4:20 am7 °FIce fog.No wind85%30.27 "Hg0 mi
3:20 am5 °FIce fog.1 mph92%30.27 "Hg1 mi
2:20 am9 °FIce fog.1 mph85%30.30 "Hg0 mi
1:20 am9 °FIce fog.No wind92%30.30 "Hg0 mi
12:20 am10 °FIce fog.No wind92%30.30 "Hg0 mi
11:20 pm
Sat, Jan 21
10 °FIce fog.1 mph92%30.33 "Hg0 mi
10:20 pm12 °FIce fog.No wind85%30.33 "Hg0 mi
9:20 pm12 °FIce fog.1 mph92%30.33 "Hg0 mi
8:20 pm12 °FIce fog.No wind92%30.33 "Hg0 mi
7:20 pm14 °FIce fog.1 mph85%30.33 "Hg0 mi
6:20 pm14 °FIce fog.1 mph92%30.33 "Hg0 mi
5:20 pm14 °FIce fog.2 mph92%30.33 "Hg0 mi
5:05 pm14 °FIce fog.2 mph92%30.33 "Hg0 mi
4:54 pm16 °FIce fog.2 mph86%30.33 "Hg1 mi
4:20 pm16 °FIce fog.3 mph93%30.33 "Hg1 mi
3:20 pm18 °FIce fog.3 mph86%30.33 "Hg2 mi
2:20 pm16 °FIce fog.1 mph86%30.33 "Hg1 mi
1:20 pm18 °FIce fog.1 mph86%30.36 "Hg1 mi
12:20 pm14 °FIce fog.1 mph85%30.36 "Hg1 mi
11:20 am12 °FIce fog.1 mph92%30.39 "Hg1 mi
10:20 am12 °FIce fog.1 mph85%30.39 "Hg0 mi
9:20 am12 °FIce fog.1 mph85%30.39 "Hg0 mi
Weather by CustomWeather, © 2017

See weather overviewHow to use our weather pages